Location: Ash Swamp
(41.5170°N, 74.6157°W)
Time: 01:54:18
(UTC+00:00)

SL-16 R/B - Visible Passes

Search period start: 23 October 2020 00:00
Search period end: 02 November 2020 00:00
Orbit: 842 x 846 km, 71.0° (Epoch: 22 October)

Date Brightness Start Highest point End Pass type
(mag) Time Alt. Az. Time Alt. Az. Time Alt. Az.
23 Oct 4.7 10:20:58 10° N 10:24:26 16° NE 10:27:52 10° E visible
24 Oct 4.7 10:06:44 10° N 10:10:04 16° NE 10:13:23 10° E visible
25 Oct 4.8 09:52:30 10° NNE 09:55:43 15° NE 09:58:55 10° E visible
26 Oct 4.8 09:38:16 10° NNE 09:41:21 15° NE 09:44:25 10° E visible
27 Oct 4.8 09:24:03 10° NNE 09:26:59 14° NE 09:29:56 10° ENE visible
28 Oct 4.8 09:09:50 10° NNE 09:12:38 14° NE 09:15:26 10° ENE visible
28 Oct 2.4 10:52:02 10° NNW 10:57:44 77° ENE 11:03:23 10° SSE visible
29 Oct 4.9 08:55:38 10° NNE 08:58:17 13° NE 09:00:55 10° ENE visible
29 Oct 2.5 10:37:42 10° NNW 10:43:24 75° ENE 10:49:03 10° SSE visible
30 Oct 4.9 08:41:26 10° NNE 08:43:55 13° NE 08:46:23 10° ENE visible
30 Oct 2.5 10:23:24 10° NNW 10:29:05 72° ENE 10:34:44 10° SSE visible
31 Oct 4.9 08:27:15 10° NNE 08:29:33 12° NE 08:31:51 10° ENE visible
31 Oct 2.5 10:09:05 10° NNW 10:14:46 69° ENE 10:20:24 10° SSE visible
31 Oct 3.9 23:18:57 10° SE 23:20:20 15° SE 23:20:20 15° SE visible
01 Nov 4.2 01:00:45 10° SW 01:02:18 19° SW 01:02:18 19° SW visible
01 Nov 5.0 08:13:06 10° NNE 08:15:12 12° NE 08:17:17 10° ENE visible
01 Nov 2.6 09:54:46 10° NNW 10:00:27 67° ENE 10:06:04 10° SSE visible
01 Nov 3.6 23:04:47 10° SE 23:07:49 18° ESE 23:07:49 18° ESE visible
